STARLINK-32475, 61728

Orbit data source: Space-Track

STARLINK-32475, 61728 is a payload satellite owned by SpaceX/Seattle (US) in LEO that was launched on Wed, 30 Oct 2024 UTC via an FALCON 9 launch vehicle from the Air Force Eastern Test Range (AFETR). Payloads include a variety of satellites, spacecraft, and rockets equipped with specific instruments for various scientific and technological missions. These include communications satellites like Starlink; space stations such as the ISS; scientific satellites like the Hubble; Earth observation satellites from companies like Planet Labs, Umbra, and HawkEye 360; GPS; miniature CubeSats for education and research; and military/defense satellites.

Loading next visibility...
STARLINK-32475 details
Identifier
61728, 2024-196X
Orbit
LEO
Last TLE update9 hours ago
Origin
Flag of USSpaceX/Seattle (US)
ManufacturerSpaceX/Seattle
MissionOperational spacecraft
Bus & MotorSTARLINK V2M, Unknown motor
Mass730 kg wet, ~700 kg dry
Launch date (UTC)
2024-10-30 (2 months ago)
Launch vehicle
FALCON 9
Launch site
Air Force Eastern Test Range (AFETR)
Object type
Payload
Rocket body
Debris
Shape & HBRUnknown
Radar Cross SectionLarge (>1 m²)

Expand to show TLE details & history

TLE from 9 hours ago
0 STARLINK-32475
1 61728U 24196X   24361.33047577 -.00000632  00000-0 -58137-5 0  9990
2 61728  53.1625 339.4776 0001269  79.9734 280.1414 15.39605562  9870
Epoch: 2024-12-26T07:55Z
Definitive object data (Epoch: 2024-12-26T07:55:53.106Z)
Latitude-0.00003°
Longitude125.19489°
Altitude448.026 km
Speed7.645 km/s
True Right ascension22h 37m 54s
True Declination0° 00' 00"
Sunlit
Object was in daylight at TLE epoch
Visualization TLE readout
Latitude-3.1703°
Longitude120.99779°
Altitude448.57 km
Speed7.644 km/s
Apparent Right ascension00h 49m 35s
Apparent Declination-28° 46' 33"
Sunlit
Object is in daylight
Visualization observer readout
Local Sidereal Time16:38:02
Azimuth94.954° ESE
Elevation-42.373°
Doppler factor1
Orbital elements
Apogee altitude448.398 km
Perigee altitude446.666 km
Semi-major axis6,825.669 km
Eccentricity0.0001269
Inclination53.1625°
RAAN339.4776°
Arg. of periapsis79.9734°
True anomaly280.12709°
Mean anomaly280.1414°
Eccentric anomaly280.13424°
Mean motion3.8488 °/min
BSTAR-0.0000058137
Orbital period93.54 mins
Loading maneuver chart data...
Loading historical data...
Loading historical data...
Loading historical data...
Loading historical data...
Loading historical data...
Loading historical data...
Loading historical data...

STARLINK-32475 Visibility forecast

Observer location: undefined°, undefined

Span
Click to sort rows by Start time (UTC) header in descending order
Start Az.
Max El. time (UTC)
Max El. Az.
Max El.
End time (UTC)
End Az.
5 mins2024-12-27 01:14:43.740Z212.795° SW2024-12-27 01:17:43.740Z98.922° ESE38.361°2024-12-27 01:19:43.740Z60.58° ENE
5 mins2024-12-27 07:47:43.740Z329.197° NNW2024-12-27 07:49:43.740Z33.408° NE36.215°2024-12-27 07:52:43.740Z108.927° ESE
|